Weather History for KPSF - October, 2014

Change the Weather History Date:

Sunday, October 5, 2014

  Actual Average Record
Temperature  
Mean Temperature 45 °F 51 °F  
Max Temperature 56 °F 61 °F 82 °F (2007)
Min Temperature 34 °F 41 °F 26 °F (1965)
Degree Days  
Heating Degree Days 20 14  
Month to date heating degree days 54 67  
Since 1 July heating degree days 331 359  
Cooling Degree Days 0 0  
Month to date cooling degree days 0 0  
Year to date cooling degree days 233 289  
Moisture  
Dew Point 36 °F    
Average Humidity 67    
Maximum Humidity 92    
Minimum Humidity 41    
Precipitation  
Precipitation 0.00 in 0.17 in 0.78 in (1962)
Month to date precipitation 1.11 0.88  
Year to date precipitation 33.44 34.62  
Sea Level Pressure  
Sea Level Pressure 29.75 in    
Wind  
Wind Speed 6 mph (West)    
Max Wind Speed 16 mph    
Max Gust Speed 22 mph    
Visibility 10 miles    
Events      
T = Trace of Precipitation, MM = Missing Value Source: NWS Daily Summary

Daily Weather History Graph

Daily Weather History Graph

Search for Another Location

Airport or City:

Trip Planner

Search our weather history database for the weather conditions in past years. The results will help you decide how hot, cold, wet, or windy it might be!

Date:

Astronomy

Oct. 05, 2014 Rise Set
Actual Time 6:54 AM EDT 6:27 PM EDT
Civil Twilight 6:26 AM EDT 6:55 PM EDT
Nautical Twilight 5:54 AM EDT 7:28 PM EDT
Astronomical Twilight 5:21 AM EDT 8:01 PM EDT
Moon 4:46 PM EDT (10/5) 3:24 AM EDT (10/5)
Length of Visible Light 12h 29m
Length of Day
11h 33m
Waxing Gibbous, 89% of the Moon is Illuminated
Oct 5
Waxing Gibbous
Oct 8
Full
Oct 15
Last Quarter
Oct 23
New
Oct 30
First Quarter

Hourly Weather History & Observations

Time (EDT) Temp. Windchill Dew Point Humidity Pressure Visibility Wind Dir Wind Speed Gust Speed Precip Events Conditions
12:47 AM 46.0 °F 41.9 °F 42.1 °F 86% 29.64 in 10.0 mi West 8.1 mph - N/A   Mostly Cloudy
12:54 AM 46.0 °F 39.9 °F 42.1 °F 86% 29.62 in 10.0 mi West 13.8 mph 20.7 mph N/A   Mostly Cloudy
1:07 AM 46.0 °F 41.0 °F 41.0 °F 83% 29.64 in 10.0 mi WNW 10.4 mph 20.7 mph N/A   Scattered Clouds
1:54 AM 45.0 °F 38.9 °F 37.9 °F 76% 29.62 in 10.0 mi WNW 12.7 mph 21.9 mph N/A   Partly Cloudy
2:54 AM 43.0 °F 38.8 °F 37.0 °F 80% 29.63 in 10.0 mi WNW 6.9 mph - N/A   Clear
3:54 AM 42.1 °F 36.6 °F 37.0 °F 82% 29.64 in 10.0 mi West 9.2 mph - N/A   Clear
4:54 AM 39.9 °F - 37.0 °F 89% 29.66 in 10.0 mi Calm Calm - N/A   Clear
5:54 AM 41.0 °F 37.1 °F 37.9 °F 89% 29.68 in 10.0 mi WSW 5.8 mph - N/A   Clear
6:54 AM 39.9 °F 35.8 °F 36.0 °F 86% 29.71 in 10.0 mi SW 5.8 mph - N/A   Scattered Clouds
7:54 AM 39.9 °F 34.5 °F 34.0 °F 79% 29.72 in 10.0 mi WSW 8.1 mph - N/A   Clear
8:54 AM 43.0 °F 37.7 °F 34.0 °F 71% 29.74 in 10.0 mi West 9.2 mph - N/A   Clear
9:54 AM 45.0 °F 41.2 °F 33.1 °F 63% 29.76 in 10.0 mi West 6.9 mph - N/A   Clear
10:54 AM 46.9 °F - 33.1 °F 59% 29.76 in 10.0 mi WSW 4.6 mph - N/A   Clear
11:54 AM 48.9 °F - 34.0 °F 56% 29.76 in 10.0 mi WSW 10.4 mph - N/A   Clear
12:54 PM 52.0 °F - 32.0 °F 47% 29.76 in 10.0 mi WNW 10.4 mph - N/A   Clear
1:54 PM 54.0 °F - 33.1 °F 45% 29.75 in 10.0 mi NNW 8.1 mph - N/A   Clear
2:54 PM 54.0 °F - 32.0 °F 43% 29.76 in 10.0 mi SSW 4.6 mph - N/A   Clear
3:54 PM 55.9 °F - 32.0 °F 40% 29.77 in 10.0 mi North - - N/A   Partly Cloudy
4:54 PM 54.0 °F - 30.0 °F 40% 29.79 in 10.0 mi West 4.6 mph - N/A   Clear
5:54 PM 52.0 °F - 32.0 °F 47% 29.81 in 10.0 mi WSW 4.6 mph - N/A   Clear
6:54 PM 45.0 °F 43.5 °F 36.0 °F 71% 29.84 in 10.0 mi SW 3.5 mph - N/A   Clear
7:54 PM 39.0 °F 36.8 °F 37.0 °F 93% 29.88 in 10.0 mi East 3.5 mph - N/A   Clear
8:54 PM 39.0 °F 36.8 °F 36.0 °F 89% 29.89 in 10.0 mi NW 3.5 mph - N/A   Clear
9:54 PM 39.0 °F - 37.0 °F 93% 29.91 in 10.0 mi Calm Calm - N/A   Clear
10:54 PM 37.9 °F - 36.0 °F 93% 29.93 in 10.0 mi Calm Calm - N/A   Clear
11:54 PM 35.1 °F 32.2 °F 34.0 °F 96% 29.95 in 10.0 mi WSW 3.5 mph - N/A   Clear